Address 0x8743f9df6b06a534f2ab47aabb327fcea263b9c2

 
Txn Hash
Block
From
To
Value [Txn Fee]
0x28f633ab63ce49ba65445efec18f8bb71755758cf5302efa512db59fa64a273025344192020-11-25 4:16:291 hr 2 mins ago0x8743f9df6b06a534f2ab47aabb327fcea263b9c2OUT 0x3bc677674df90a9e5d741f28f6ca303357d0e4ec0 BNB0.00193108
0x69b9eca646ef13b40c5029b5afbd31fb83f2744b1daafa90c1f2527e0b8102a425344092020-11-25 4:15:591 hr 3 mins ago0x8743f9df6b06a534f2ab47aabb327fcea263b9c2OUT 0x3bc677674df90a9e5d741f28f6ca303357d0e4ec0 BNB0.0019874
0xffdc0a80e34eb5a183a596173b48a1b18873cfe64fe1188ac2e8bceec87fa46625344012020-11-25 4:15:351 hr 3 mins ago0x8743f9df6b06a534f2ab47aabb327fcea263b9c2OUT Beefy.Finance: BIFI Token0 BNB0.00089018
0xe7455152a4d22a06ae89744147602f0fb8be22fd63a65487b6529b525ef8a7cd25343852020-11-25 4:14:471 hr 4 mins ago0x8743f9df6b06a534f2ab47aabb327fcea263b9c2OUT 0x453d4ba9a2d594314df88564248497f7d74d6b2c0 BNB0.00181266
0x64e88c905f986c16507a2ca4e2fb7fb29a1dee91f71f7ef3d0db77d70c2b1c3b25333702020-11-25 3:24:021 hr 55 mins ago0x8743f9df6b06a534f2ab47aabb327fcea263b9c2OUT 0x3bc677674df90a9e5d741f28f6ca303357d0e4ec0.1 BNB0.004743717
0x335cd278ee8995cd146e946a8a231c6efbd12bfcca6ccc472ec60d66e47cc35425333582020-11-25 3:23:261 hr 55 mins ago0x8743f9df6b06a534f2ab47aabb327fcea263b9c2OUT Binance: WBNB Token0 BNB0.001903352
0x8b0a10b763642f4e9254a7f02d666f58bfbd8477f1af40f69c6c319149deae9925293492020-11-25 0:02:395 hrs 16 mins ago0x8743f9df6b06a534f2ab47aabb327fcea263b9c2OUT Binance: BUSD Stablecoin0 BNB0.00088812
0x0706afc2b8a64aebe362f1e3755abe156dea862c06e990ad17a2e6bc54faefe825277852020-11-24 22:44:276 hrs 34 mins ago0x8743f9df6b06a534f2ab47aabb327fcea263b9c2OUT PancakeSwap: Router0 BNB0.00200168
0xf75016f02d0c479ae56f2b03ebe8c1062bbc0952ae35f423a02197c95e72525225277772020-11-24 22:44:036 hrs 35 mins ago0x8743f9df6b06a534f2ab47aabb327fcea263b9c2OUT PancakeSwap: Router0 BNB0.00200168
0x16c23b2b7957798d298911d891bed7bb055540c90b861b962170902695f2bb4725277542020-11-24 22:42:546 hrs 36 mins ago0x8743f9df6b06a534f2ab47aabb327fcea263b9c2OUT 0x453d4ba9a2d594314df88564248497f7d74d6b2c0 BNB0.00181242
0x4021221f3d91dcf8097e3299556e9d8e14ebb0a682812442482a77ace2ad79dd25269172020-11-24 22:01:037 hrs 18 mins ago0x8743f9df6b06a534f2ab47aabb327fcea263b9c2OUT PancakeSwap: Router0 BNB0.00224512
0x6b655e2e8fa546b97af5efa00eedc4122502ef7c7942d913bdba01ea5f65cc8825269032020-11-24 22:00:217 hrs 18 mins ago0x8743f9df6b06a534f2ab47aabb327fcea263b9c2OUT PancakeSwap: Router0 BNB0.00224512
0xaba1528a95ef78c5cdd36874be3e450c2ad1c891a9455a2e50e2944746a4aae925268792020-11-24 21:59:097 hrs 20 mins ago0x8743f9df6b06a534f2ab47aabb327fcea263b9c2OUT PancakeSwap: Router0 BNB0.00224512
0x560c53e8cb729b376455303601da19e994c4f7a407dc945b9b3c03e1b1b6703a25268682020-11-24 21:58:367 hrs 20 mins ago0x8743f9df6b06a534f2ab47aabb327fcea263b9c2OUT PancakeSwap: Router0 BNB0.00224512
0xe5563880ecb1e4739e9f7c4bd990afd36c748c013cfc4258dce02fc7ab07554425268542020-11-24 21:57:547 hrs 21 mins ago0x8743f9df6b06a534f2ab47aabb327fcea263b9c2OUT Beefy.Finance: BIFI Token0 BNB0.00089018
0x9b46bff12d49750aace0f7f1538f01a5201c32bf994b74304c98b68651683b7c25268392020-11-24 21:57:097 hrs 22 mins ago0x8743f9df6b06a534f2ab47aabb327fcea263b9c2OUT 0x453d4ba9a2d594314df88564248497f7d74d6b2c0 BNB0.00211266
0x94223f074f91e8d23b6acb9ff37954bbfb9607f34cab6599f68bb11cdf18ab5525030112020-11-24 2:02:271 day 3 hrs ago0x8743f9df6b06a534f2ab47aabb327fcea263b9c2OUT Binance: WBNB Token0 BNB0.00088528
0x1316b17e6f432f884ee34b963c3f7c3860d1308d8f49228ea9c46a3805e154a424643972020-11-22 17:48:152 days 11 hrs ago0x8743f9df6b06a534f2ab47aabb327fcea263b9c2OUT Binance: BUSD Stablecoin0 BNB0.00088812
0x68faed593307913619c2d6efa17aaa7d99b53a01b0f3e880180d1112f752877924634402020-11-22 17:00:242 days 12 hrs ago0x8743f9df6b06a534f2ab47aabb327fcea263b9c2OUT Keep3rb Network: KP3RB Token0 BNB0.0002893
0x2e678aa7ef85b986ff4b05bed97dc113d1a9813a77bac1d9d0372f42fae570c624634382020-11-22 17:00:182 days 12 hrs ago0x8743f9df6b06a534f2ab47aabb327fcea263b9c2OUT WINk: blink Token0 BNB0.00029076
0xf4244cf975c16d6e9edfe348e08edca6087dc9d26337d310db15a49de585339e24634372020-11-22 17:00:152 days 12 hrs ago0x8743f9df6b06a534f2ab47aabb327fcea263b9c2OUT PancakeSwap: Cake0 BNB0.00028936
0x89150275f00efe532f142c19b7b7b5156817e6a5acb8281691f65063cd3b56f924634362020-11-22 17:00:122 days 12 hrs ago0x8743f9df6b06a534f2ab47aabb327fcea263b9c2OUT PancakeSwap: SYRUP Token0 BNB0.00029034
0xc58239eb3072d5416e4c626e8b7dded90e369df63fd3bab7b9d5db86afc701eb24634352020-11-22 17:00:092 days 12 hrs ago0x8743f9df6b06a534f2ab47aabb327fcea263b9c2OUT Binance: BUSD Stablecoin0 BNB0.00029022
0x840bbf761c08d6c5af1b15f7199b142955329ddac396c0fbb17b853a2888ab8d24634342020-11-22 17:00:062 days 12 hrs ago0x8743f9df6b06a534f2ab47aabb327fcea263b9c2OUT Xpace Finance: PLNT Token0 BNB0.00029126
0xffefaa9ad01cf3628be7fa811629c1284066d9c0cc2aa86fb5bfd9561741d90f24634332020-11-22 17:00:032 days 12 hrs ago0x8743f9df6b06a534f2ab47aabb327fcea263b9c2OUT Binance: BUSD Stablecoin0 BNB0.00029022
[ Download CSV Export 
Latest 25 internal transaction
Parent Txn Hash Block From To Value
0x1484eca2c9a53e2ca43c3f104b62153081b33a0386946ca5e894dda2399e68c524053982020-11-20 16:35:444 days 12 hrs ago PancakeSwap: Router0x8743f9df6b06a534f2ab47aabb327fcea263b9c20.075697672405361068 BNB
0xe3112caa3b8a14455eb55c954259f2a922e994d3ce3922d9ab078c1f41d8f62424032442020-11-20 14:48:024 days 14 hrs ago PancakeSwap: Router0x8743f9df6b06a534f2ab47aabb327fcea263b9c20.343177562480237361 BNB
0xe322a756a54279ec54960649002aad65829dfd6e83ac9b17239ff24dc2ba82d024024822020-11-20 14:09:484 days 15 hrs ago PancakeSwap: Router0x8743f9df6b06a534f2ab47aabb327fcea263b9c218.725291225922240516 BNB
0x26b72f59647809bca67b698bbad919e089fb4569a1a484319bf1c093a75f17c024024402020-11-20 14:07:424 days 15 hrs ago PancakeSwap: Router0x8743f9df6b06a534f2ab47aabb327fcea263b9c215.539375209616702314 BNB
0x4f5d922b71c3256897932be31944aee2b6d9f8e0eee88632303a377f92a77f9a24024262020-11-20 14:07:004 days 15 hrs ago PancakeSwap: Router0x8743f9df6b06a534f2ab47aabb327fcea263b9c219.265083211006385121 BNB
0x7403397c6190b06c210e7c6dafe93f04109b9764421d3bd9c0495fba3d80167324006352020-11-20 12:37:274 days 16 hrs ago PancakeSwap: Router0x8743f9df6b06a534f2ab47aabb327fcea263b9c216.963328799541691304 BNB
0xb0ceed10c6e4d2f1958d4ab1d7f4c24e04a0b89acd35518dd1d6e2bfe290d23613950132020-10-16 14:00:2139 days 15 hrs ago 0xe85c6ab56a3422e7bafd71e81eb7d0f2906460780x8743f9df6b06a534f2ab47aabb327fcea263b9c24.852056993636901176 BNB
0xedc06d060c65ce57cfc0cfd7458063e4b7a0f6099bc0a39dede5a1cae38837c712790652020-10-12 13:22:5743 days 15 hrs ago BSCswap: Router0x8743f9df6b06a534f2ab47aabb327fcea263b9c210 BNB
0xcb003554c2c2279894e57ae97236edb437435b628efdd1b89aa60278737e289812367452020-10-11 2:06:5745 days 3 hrs ago BSCswap: Router0x8743f9df6b06a534f2ab47aabb327fcea263b9c243.394536792027940701 BNB
0x9fadf6a0a7022dd5d7ec102b4c2e63a428ee8704610f1e3520ea9633d0de13f812367322020-10-11 2:06:1845 days 3 hrs ago BSCswap: Router0x8743f9df6b06a534f2ab47aabb327fcea263b9c20.181504246284759084 BNB
0xed42b8746c9b3daefffb1659561f9b18252f0488e8b407716fc310222ca3b34c12367162020-10-11 2:05:3045 days 3 hrs ago BSCswap: Router0x8743f9df6b06a534f2ab47aabb327fcea263b9c245.035906002505142312 BNB
0x1be2e6ed6d6b7ce4ee44707d06cd686aaa68bd1fc899b5573c4994ac121618cc12366192020-10-11 2:00:3945 days 3 hrs ago BSCswap: Router0x8743f9df6b06a534f2ab47aabb327fcea263b9c20.186973471840095546 BNB
0xd3fdbadcef9169bceeac93e1e0ad9bb3f4a7884d0eedb0392f9900ae5c98e43012365952020-10-11 1:59:2745 days 3 hrs ago BSCswap: Router0x8743f9df6b06a534f2ab47aabb327fcea263b9c20.103239204346050562 BNB
0xeec7fd398ecc8b9b96ddfb51c7345f20cebfe034c2f7184670ac29c2d87da43211959932020-10-09 16:09:1946 days 13 hrs ago BSCswap: Router0x8743f9df6b06a534f2ab47aabb327fcea263b9c21.052383065184240776 BNB
0x234957fceaebd73c39db089dd774220888679e96bcef53f1112425987bc624b811959662020-10-09 16:07:5846 days 13 hrs ago BSCswap: Router0x8743f9df6b06a534f2ab47aabb327fcea263b9c243.519294715541262345 BNB
0xb2f3c897cd385b9c6b7293af4428eef5bd211a98ea3c0ab6660f6680d7b8e3a511747262020-10-08 22:25:5847 days 6 hrs ago BSCswap: Router0x8743f9df6b06a534f2ab47aabb327fcea263b9c25.433275042356086933 BNB
0xe7701aa1166c87cdc25d83b1fd3ee7fa120a73640b198c67c993ef246457a9a611648052020-10-08 14:09:5547 days 15 hrs ago 0xbf6527834dbb89cdc97a79fcd62e6c08b19f8ec00x8743f9df6b06a534f2ab47aabb327fcea263b9c23.684484254775590815 BNB
0xbf80359382a01775a2a1b10e955b8c64c13b1da492c418ba62449d47f608649911647862020-10-08 14:08:5847 days 15 hrs ago 0xbf6527834dbb89cdc97a79fcd62e6c08b19f8ec00x8743f9df6b06a534f2ab47aabb327fcea263b9c23.49908703759655222 BNB
0x5072bb1c60e77a07438de9616e09aa94932a7c49085d8cd7d12f28d362745eeb11143262020-10-06 20:05:5849 days 9 hrs ago 0xbf6527834dbb89cdc97a79fcd62e6c08b19f8ec00x8743f9df6b06a534f2ab47aabb327fcea263b9c252.058780314130817468 BNB
0x779966896d1d9cef9fbae1000725a33492cd54168df2c27f386aee7eac7d898411143112020-10-06 20:05:1349 days 9 hrs ago BSCswap: Router0x8743f9df6b06a534f2ab47aabb327fcea263b9c253.151850299045600531 BNB
0x9e46ea8630192fd930a79b37c713de555c0a79098162c03014757acde6d1121710927192020-10-06 2:05:3750 days 3 hrs ago 0xbf6527834dbb89cdc97a79fcd62e6c08b19f8ec00x8743f9df6b06a534f2ab47aabb327fcea263b9c21.070358321714726526 BNB
0x00eb14762cd031f4e8cdf28c7589cd179c40a18fee2b23a009c4fff9eca27ea010904082020-10-06 0:10:0450 days 5 hrs ago BSCswap: Router0x8743f9df6b06a534f2ab47aabb327fcea263b9c20.00611075005436203 BNB
0x7feedfd81eedda834800abe6a3af245917487698955fd9cf5382abed927b9fcb10863602020-10-05 20:47:4050 days 8 hrs ago BSCswap: Router0x8743f9df6b06a534f2ab47aabb327fcea263b9c21 BNB
0x7509b3b953cae53326459358fa7ee92bb2c12ac6f0408dc52b6bf9f69523494410863362020-10-05 20:46:2850 days 8 hrs ago 0xbf6527834dbb89cdc97a79fcd62e6c08b19f8ec00x8743f9df6b06a534f2ab47aabb327fcea263b9c24.929661943925490959 BNB
0xf89090c3179faf30b5d3f402ab329f8eccdd3c1c34128d7bcc82f653aa09ecf610862142020-10-05 20:40:2250 days 8 hrs ago BSCswap: Router0x8743f9df6b06a534f2ab47aabb327fcea263b9c20.004902716648449927 BNB
[ Download CSV Export 
Loading

Contract Name:
0 BNB

Compiler Version
0

Optimization Enabled:
0 BNB

Other Settings:
-NA-
Block Transaction Gas Used Reward
Age Block Fee Address BC Fee Address Voting Power Jailed Incoming
Block Uncle Number Difficulty Gas Used Reward
Loading
Loading
Make sure to use the "Vote Down" button for any spammy posts, and the "Vote Up" for interesting conversations.